Year,Month,Day,Hour,Minute,Value (Times are PST for temperature in C)
2013,05,24,00,00,6.90
2013,05,24,00,01,6.90
2013,05,24,00,02,6.90
2013,05,24,00,03,6.90
2013,05,24,00,04,6.90
2013,05,24,00,05,6.80
2013,05,24,00,06,6.90
2013,05,24,00,07,6.80
2013,05,24,00,08,6.80
2013,05,24,00,09,6.80
2013,05,24,00,10,6.80
2013,05,24,00,11,6.80
2013,05,24,00,12,6.80
2013,05,24,00,13,6.80
2013,05,24,00,14,6.80
2013,05,24,00,15,6.80
2013,05,24,00,16,6.80
2013,05,24,00,17,6.80
2013,05,24,00,18,6.80
2013,05,24,00,19,6.80
2013,05,24,00,20,6.80
2013,05,24,00,21,6.70
2013,05,24,00,22,6.70
2013,05,24,00,23,6.70
2013,05,24,00,24,6.70
2013,05,24,00,25,6.70
2013,05,24,00,26,6.70
2013,05,24,00,27,6.70
2013,05,24,00,28,6.70
2013,05,24,00,29,6.70
2013,05,24,00,30,6.70
2013,05,24,00,31,6.60
2013,05,24,00,32,6.60
2013,05,24,00,33,6.60
2013,05,24,00,34,6.60
2013,05,24,00,35,6.60
2013,05,24,00,36,6.60
2013,05,24,00,37,6.60
2013,05,24,00,38,6.60
2013,05,24,00,39,6.60
2013,05,24,00,40,6.60
2013,05,24,00,41,6.60
2013,05,24,00,42,6.50
2013,05,24,00,43,6.50
2013,05,24,00,44,6.50
2013,05,24,00,45,6.50
2013,05,24,00,46,6.40
2013,05,24,00,47,6.40
2013,05,24,00,48,6.40
2013,05,24,00,49,6.40
2013,05,24,00,50,6.40
2013,05,24,00,51,6.40
2013,05,24,00,52,6.40
2013,05,24,00,53,6.40
2013,05,24,00,54,6.40
2013,05,24,00,55,6.40
2013,05,24,00,56,6.40
2013,05,24,00,57,6.40
2013,05,24,00,58,6.30
2013,05,24,00,59,6.30
2013,05,24,01,00,6.30
2013,05,24,01,01,6.30
2013,05,24,01,02,6.30
2013,05,24,01,03,6.30
2013,05,24,01,04,6.30
2013,05,24,01,05,6.30
2013,05,24,01,06,6.30
2013,05,24,01,07,6.20
2013,05,24,01,08,6.20
2013,05,24,01,09,6.20
2013,05,24,01,10,6.20
2013,05,24,01,11,6.20
2013,05,24,01,12,6.20
2013,05,24,01,13,6.20
2013,05,24,01,14,6.20
2013,05,24,01,15,6.20
2013,05,24,01,16,6.20
2013,05,24,01,17,6.10
2013,05,24,01,18,6.10
2013,05,24,01,19,6.10
2013,05,24,01,20,6.10
2013,05,24,01,21,6.00
2013,05,24,01,22,6.00
2013,05,24,01,23,6.00
2013,05,24,01,24,6.00
2013,05,24,01,25,5.90
2013,05,24,01,26,5.90
2013,05,24,01,27,5.90
2013,05,24,01,28,5.90
2013,05,24,01,29,5.90
2013,05,24,01,30,6.00
2013,05,24,01,31,6.00
2013,05,24,01,32,6.00
2013,05,24,01,33,6.00
2013,05,24,01,34,6.00
2013,05,24,01,35,6.00
2013,05,24,01,36,6.00
2013,05,24,01,37,6.00
2013,05,24,01,38,6.00
2013,05,24,01,39,6.00
2013,05,24,01,40,6.00
2013,05,24,01,41,6.00
2013,05,24,01,42,5.90
2013,05,24,01,43,5.90
2013,05,24,01,44,5.90
2013,05,24,01,45,5.90
2013,05,24,01,46,5.90
2013,05,24,01,47,5.80
2013,05,24,01,48,5.80
2013,05,24,01,49,5.80
2013,05,24,01,50,5.80
2013,05,24,01,51,5.80
2013,05,24,01,52,5.80
2013,05,24,01,53,5.80
2013,05,24,01,54,5.80
2013,05,24,01,55,5.80
2013,05,24,01,56,5.70
2013,05,24,01,57,5.70
2013,05,24,01,58,5.70
2013,05,24,01,59,5.70
2013,05,24,02,00,5.80
2013,05,24,02,01,5.70
2013,05,24,02,02,5.70
2013,05,24,02,03,5.70
2013,05,24,02,04,5.70
2013,05,24,02,05,5.70
2013,05,24,02,06,5.70
2013,05,24,02,07,5.70
2013,05,24,02,08,5.70
2013,05,24,02,09,5.70
2013,05,24,02,10,5.70
2013,05,24,02,11,5.70
2013,05,24,02,12,5.70
2013,05,24,02,13,5.70
2013,05,24,02,14,5.70
2013,05,24,02,15,5.70
2013,05,24,02,16,5.70
2013,05,24,02,17,5.70
2013,05,24,02,18,5.70
2013,05,24,02,19,5.60
2013,05,24,02,20,5.60
2013,05,24,02,21,5.60
2013,05,24,02,22,5.60
2013,05,24,02,23,5.60
2013,05,24,02,24,5.60
2013,05,24,02,25,5.60
2013,05,24,02,26,5.60
2013,05,24,02,27,5.60
2013,05,24,02,28,5.50
2013,05,24,02,29,5.50
2013,05,24,02,30,5.50
2013,05,24,02,31,5.50
2013,05,24,02,32,5.50
2013,05,24,02,33,5.50
2013,05,24,02,34,5.50
2013,05,24,02,35,5.50
2013,05,24,02,36,5.50
2013,05,24,02,37,5.50
2013,05,24,02,38,5.60
2013,05,24,02,39,5.60
2013,05,24,02,40,5.60
2013,05,24,02,41,5.60
2013,05,24,02,42,5.70
2013,05,24,02,43,5.70
2013,05,24,02,44,5.70
2013,05,24,02,45,5.70
2013,05,24,02,46,5.70
2013,05,24,02,47,5.70
2013,05,24,02,48,5.60
2013,05,24,02,49,5.60
2013,05,24,02,50,5.60
2013,05,24,02,51,5.60
2013,05,24,02,52,5.60
2013,05,24,02,53,5.60
2013,05,24,02,54,5.60
2013,05,24,02,55,5.60
2013,05,24,02,56,5.60
2013,05,24,02,57,5.60
2013,05,24,02,58,5.60
2013,05,24,02,59,5.60
2013,05,24,03,00,5.50
2013,05,24,03,01,5.50
2013,05,24,03,02,5.50
2013,05,24,03,03,5.50
2013,05,24,03,04,5.50
2013,05,24,03,05,5.50
2013,05,24,03,06,5.40
2013,05,24,03,07,5.40
2013,05,24,03,08,5.40
2013,05,24,03,09,5.40
2013,05,24,03,10,5.50
2013,05,24,03,11,5.50
2013,05,24,03,12,5.50
2013,05,24,03,13,5.50
2013,05,24,03,14,5.50
2013,05,24,03,15,5.50
2013,05,24,03,16,5.50
2013,05,24,03,17,5.50
2013,05,24,03,18,5.50
2013,05,24,03,19,5.50
2013,05,24,03,20,5.50
2013,05,24,03,21,5.50
2013,05,24,03,22,5.50
2013,05,24,03,23,5.50
2013,05,24,03,24,5.50
2013,05,24,03,25,5.50
2013,05,24,03,26,5.60
2013,05,24,03,27,5.60
2013,05,24,03,28,5.60
2013,05,24,03,29,5.60
2013,05,24,03,30,5.60
2013,05,24,03,31,5.60
2013,05,24,03,32,5.60
2013,05,24,03,33,5.60
2013,05,24,03,34,5.60
2013,05,24,03,35,5.60
2013,05,24,03,36,5.60
2013,05,24,03,37,5.70
2013,05,24,03,38,5.70
2013,05,24,03,39,5.70
2013,05,24,03,40,5.70
2013,05,24,03,41,5.70
2013,05,24,03,42,5.70
2013,05,24,03,43,5.70
2013,05,24,03,44,5.70
2013,05,24,03,45,5.70
2013,05,24,03,46,5.70
2013,05,24,03,47,5.70
2013,05,24,03,48,5.70
2013,05,24,03,49,5.70
2013,05,24,03,50,5.70
2013,05,24,03,51,5.70
2013,05,24,03,52,5.80
2013,05,24,03,53,5.80
2013,05,24,03,54,5.80
2013,05,24,03,55,5.80
2013,05,24,03,56,5.80
2013,05,24,03,57,5.80
2013,05,24,03,58,5.80
2013,05,24,03,59,5.80
2013,05,24,04,00,5.80
2013,05,24,04,01,5.80
2013,05,24,04,02,5.90
2013,05,24,04,03,5.90
2013,05,24,04,04,5.90
2013,05,24,04,05,5.90
2013,05,24,04,06,5.90
2013,05,24,04,07,5.90
2013,05,24,04,08,6.00
2013,05,24,04,09,6.00
2013,05,24,04,10,6.00
2013,05,24,04,11,6.10
2013,05,24,04,12,6.10
2013,05,24,04,13,6.10
2013,05,24,04,14,6.10
2013,05,24,04,15,6.20
2013,05,24,04,16,6.20
2013,05,24,04,17,6.20
2013,05,24,04,18,6.20
2013,05,24,04,19,6.20
2013,05,24,04,20,6.20
2013,05,24,04,21,6.20
2013,05,24,04,22,6.30
2013,05,24,04,23,6.30
2013,05,24,04,24,6.30
2013,05,24,04,25,6.30
2013,05,24,04,26,6.40
2013,05,24,04,27,6.40
2013,05,24,04,28,6.40
2013,05,24,04,29,6.40
2013,05,24,04,30,6.40
2013,05,24,04,31,6.40
2013,05,24,04,32,6.40
2013,05,24,04,33,6.40
2013,05,24,04,34,6.40
2013,05,24,04,35,6.40
2013,05,24,04,36,6.40
2013,05,24,04,37,6.40
2013,05,24,04,38,6.40
2013,05,24,04,39,6.40
2013,05,24,04,40,6.40
2013,05,24,04,41,6.40
2013,05,24,04,42,6.40
2013,05,24,04,43,6.40
2013,05,24,04,44,6.40
2013,05,24,04,45,6.40
2013,05,24,04,46,6.40
2013,05,24,04,47,6.40
2013,05,24,04,48,6.40
2013,05,24,04,49,6.40
2013,05,24,04,50,6.40
2013,05,24,04,51,6.40
2013,05,24,04,52,6.40
2013,05,24,04,53,6.40
2013,05,24,04,54,6.30
2013,05,24,04,55,6.30
2013,05,24,04,56,6.30
2013,05,24,04,57,6.30
2013,05,24,04,58,6.30
2013,05,24,04,59,6.30
2013,05,24,05,00,6.30
2013,05,24,05,01,6.30
2013,05,24,05,02,6.30
2013,05,24,05,03,6.30
2013,05,24,05,04,6.30
2013,05,24,05,05,6.30
2013,05,24,05,06,6.30
2013,05,24,05,07,6.30
2013,05,24,05,08,6.30
2013,05,24,05,09,6.40
2013,05,24,05,10,6.40
2013,05,24,05,11,6.40
2013,05,24,05,12,6.40
2013,05,24,05,13,6.50
2013,05,24,05,14,6.50
2013,05,24,05,15,6.60
2013,05,24,05,16,6.60
2013,05,24,05,17,6.70
2013,05,24,05,18,6.70
2013,05,24,05,19,6.70
2013,05,24,05,20,6.70
2013,05,24,05,21,6.70
2013,05,24,05,22,6.60
2013,05,24,05,23,6.60
2013,05,24,05,24,6.60
2013,05,24,05,25,6.50
2013,05,24,05,26,6.50
2013,05,24,05,27,6.50
2013,05,24,05,28,6.50
2013,05,24,05,29,6.50
2013,05,24,05,30,6.50
2013,05,24,05,31,6.60
2013,05,24,05,32,6.60
2013,05,24,05,33,6.60
2013,05,24,05,34,6.60
2013,05,24,05,35,6.60
2013,05,24,05,36,6.50
2013,05,24,05,37,6.50
2013,05,24,05,38,6.40
2013,05,24,05,39,6.40
2013,05,24,05,40,6.40
2013,05,24,05,41,6.30
2013,05,24,05,42,6.30
2013,05,24,05,43,6.30
2013,05,24,05,44,6.20
2013,05,24,05,45,6.20
2013,05,24,05,46,6.20
2013,05,24,05,47,6.20
2013,05,24,05,48,6.20
2013,05,24,05,49,6.20
2013,05,24,05,50,6.20
2013,05,24,05,51,6.20
2013,05,24,05,52,6.20
2013,05,24,05,53,6.30
2013,05,24,05,54,6.30
2013,05,24,05,55,6.30
2013,05,24,05,56,6.30
2013,05,24,05,57,6.30
2013,05,24,05,58,6.30
2013,05,24,05,59,6.30
2013,05,24,06,00,6.30
2013,05,24,06,01,6.30
2013,05,24,06,02,6.30
2013,05,24,06,03,6.40
2013,05,24,06,04,6.40
2013,05,24,06,05,6.40
2013,05,24,06,06,6.40
2013,05,24,06,07,6.40
2013,05,24,06,08,6.40
2013,05,24,06,09,6.40
2013,05,24,06,10,6.40
2013,05,24,06,11,6.40
2013,05,24,06,12,6.40
2013,05,24,06,13,6.40
2013,05,24,06,14,6.40
2013,05,24,06,15,6.30
2013,05,24,06,16,6.30
2013,05,24,06,17,6.30
2013,05,24,06,18,6.30
2013,05,24,06,19,6.30
2013,05,24,06,20,6.30
2013,05,24,06,21,6.30
2013,05,24,06,22,6.30
2013,05,24,06,23,6.30
2013,05,24,06,24,6.30
2013,05,24,06,25,6.30
2013,05,24,06,26,6.30
2013,05,24,06,27,6.40
2013,05,24,06,28,6.40
2013,05,24,06,29,6.40
2013,05,24,06,30,6.40
2013,05,24,06,31,6.40
2013,05,24,06,32,6.40
2013,05,24,06,33,6.40
2013,05,24,06,34,6.40
2013,05,24,06,35,6.40
2013,05,24,06,36,6.50
2013,05,24,06,37,6.50
2013,05,24,06,38,6.60
2013,05,24,06,39,6.60
2013,05,24,06,40,6.70
2013,05,24,06,41,6.70
2013,05,24,06,42,6.80
2013,05,24,06,43,6.80
2013,05,24,06,44,6.90
2013,05,24,06,45,6.90
2013,05,24,06,46,7.00
2013,05,24,06,47,7.10
2013,05,24,06,48,7.10
2013,05,24,06,49,7.20
2013,05,24,06,50,7.20
2013,05,24,06,51,7.30
2013,05,24,06,52,7.30
2013,05,24,06,53,7.40
2013,05,24,06,54,7.50
2013,05,24,06,55,7.60
2013,05,24,06,56,7.70
2013,05,24,06,57,7.80
2013,05,24,06,58,7.90
2013,05,24,06,59,8.10
2013,05,24,07,00,8.20
2013,05,24,07,01,8.20
2013,05,24,07,02,8.30
2013,05,24,07,03,8.40
2013,05,24,07,04,8.50
2013,05,24,07,05,8.60
2013,05,24,07,06,8.70
2013,05,24,07,07,8.70
2013,05,24,07,08,8.80
2013,05,24,07,09,8.90
2013,05,24,07,10,9.00
2013,05,24,07,11,9.00
2013,05,24,07,12,9.10
2013,05,24,07,13,9.10
2013,05,24,07,14,9.20
2013,05,24,07,15,9.20
2013,05,24,07,16,9.20
2013,05,24,07,17,9.30
2013,05,24,07,18,9.30
2013,05,24,07,19,9.30
2013,05,24,07,20,9.30
2013,05,24,07,21,9.40
2013,05,24,07,22,9.50
2013,05,24,07,23,9.50
2013,05,24,07,24,9.60
2013,05,24,07,25,9.60
2013,05,24,07,26,9.70
2013,05,24,07,27,9.80
2013,05,24,07,28,9.90
2013,05,24,07,29,10.00
2013,05,24,07,30,10.10
2013,05,24,07,31,10.20
2013,05,24,07,32,10.20
2013,05,24,07,33,10.30
2013,05,24,07,34,10.40
2013,05,24,07,35,10.40
2013,05,24,07,36,10.40
2013,05,24,07,37,10.50
2013,05,24,07,38,10.50
2013,05,24,07,39,10.60
2013,05,24,07,40,10.60
2013,05,24,07,41,10.70
2013,05,24,07,42,10.70
2013,05,24,07,43,10.80
2013,05,24,07,44,10.80
2013,05,24,07,45,10.80
2013,05,24,07,46,10.80
2013,05,24,07,47,10.90
2013,05,24,07,48,10.90
2013,05,24,07,49,11.00
2013,05,24,07,50,11.00
2013,05,24,07,51,11.00
2013,05,24,07,52,11.00
2013,05,24,07,53,11.10
2013,05,24,07,54,11.10
2013,05,24,07,55,11.10
2013,05,24,07,56,11.10
2013,05,24,07,57,11.20
2013,05,24,07,58,11.20
2013,05,24,07,59,11.30
2013,05,24,08,00,11.30
2013,05,24,08,01,11.30
2013,05,24,08,02,11.30
2013,05,24,08,03,11.30
2013,05,24,08,04,11.30
2013,05,24,08,05,11.30
2013,05,24,08,06,11.30
2013,05,24,08,07,11.30
2013,05,24,08,08,11.40
2013,05,24,08,09,11.40
2013,05,24,08,10,11.40
2013,05,24,08,11,11.50
2013,05,24,08,12,11.60
2013,05,24,08,13,11.60
2013,05,24,08,14,11.60
2013,05,24,08,15,11.60
2013,05,24,08,16,11.60
2013,05,24,08,17,11.70
2013,05,24,08,18,11.70
2013,05,24,08,19,11.70
2013,05,24,08,20,11.70
2013,05,24,08,21,11.70
2013,05,24,08,22,11.70
2013,05,24,08,23,11.70
2013,05,24,08,24,11.70
2013,05,24,08,25,11.80
2013,05,24,08,26,11.80
2013,05,24,08,27,11.90
2013,05,24,08,28,11.90
2013,05,24,08,29,11.90
2013,05,24,08,30,11.90
2013,05,24,08,31,11.90
2013,05,24,08,32,12.00
2013,05,24,08,33,12.00
2013,05,24,08,34,12.10
2013,05,24,08,35,12.20
2013,05,24,08,36,12.20
2013,05,24,08,37,12.30
2013,05,24,08,38,12.40
2013,05,24,08,39,12.40
2013,05,24,08,40,12.40
2013,05,24,08,41,12.50
2013,05,24,08,42,12.50
2013,05,24,08,43,12.50
2013,05,24,08,44,12.50
2013,05,24,08,45,12.60
2013,05,24,08,46,12.60
2013,05,24,08,47,12.60
2013,05,24,08,48,12.60
2013,05,24,08,49,12.50
2013,05,24,08,50,12.50
2013,05,24,08,51,12.50
2013,05,24,08,52,12.40
2013,05,24,08,53,12.50
2013,05,24,08,54,12.50
2013,05,24,08,55,12.60
2013,05,24,08,56,12.70
2013,05,24,08,57,12.70
2013,05,24,08,58,12.70
2013,05,24,08,59,12.70
2013,05,24,09,00,12.60
2013,05,24,09,01,12.50
2013,05,24,09,02,12.40
2013,05,24,09,03,12.40
2013,05,24,09,04,12.30
2013,05,24,09,05,12.30
2013,05,24,09,06,12.30
2013,05,24,09,07,12.30
2013,05,24,09,08,12.40
2013,05,24,09,09,12.40
2013,05,24,09,10,12.50
2013,05,24,09,11,12.50
2013,05,24,09,12,12.50
2013,05,24,09,13,12.60
2013,05,24,09,14,12.60
2013,05,24,09,15,12.70
2013,05,24,09,16,12.80
2013,05,24,09,17,12.80
2013,05,24,09,18,12.80
2013,05,24,09,19,12.80
2013,05,24,09,20,12.90
2013,05,24,09,21,12.90
2013,05,24,09,22,12.90
2013,05,24,09,23,12.90
2013,05,24,09,24,12.90
2013,05,24,09,25,12.90
2013,05,24,09,26,12.90
2013,05,24,09,27,12.90
2013,05,24,09,28,12.90
2013,05,24,09,29,12.90
2013,05,24,09,30,12.90
2013,05,24,09,31,12.90
2013,05,24,09,32,12.90
2013,05,24,09,33,13.00
2013,05,24,09,34,13.00
2013,05,24,09,35,13.10
2013,05,24,09,36,13.10
2013,05,24,09,37,13.10
2013,05,24,09,38,13.20
2013,05,24,09,39,13.20
2013,05,24,09,40,13.20
2013,05,24,09,41,13.20
2013,05,24,09,42,13.20
2013,05,24,09,43,13.20
2013,05,24,09,44,13.10
2013,05,24,09,45,13.10
2013,05,24,09,46,13.00
2013,05,24,09,47,12.90
2013,05,24,09,48,12.80
2013,05,24,09,49,12.70
2013,05,24,09,50,12.70
2013,05,24,09,51,12.70
2013,05,24,09,52,12.70
2013,05,24,09,53,12.80
2013,05,24,09,54,12.80
2013,05,24,09,55,12.90
2013,05,24,09,56,12.90
2013,05,24,09,57,12.90
2013,05,24,09,58,12.90
2013,05,24,09,59,13.00
2013,05,24,10,00,13.10
2013,05,24,10,01,13.30
2013,05,24,10,02,13.30
2013,05,24,10,03,13.20
2013,05,24,10,04,13.20
2013,05,24,10,05,13.30
2013,05,24,10,06,13.40
2013,05,24,10,07,13.50
2013,05,24,10,08,13.60
2013,05,24,10,09,13.70
2013,05,24,10,10,13.70
2013,05,24,10,11,13.70
2013,05,24,10,12,13.70
2013,05,24,10,13,13.70
2013,05,24,10,14,13.70
2013,05,24,10,15,13.60
2013,05,24,10,16,13.60
2013,05,24,10,17,13.60
2013,05,24,10,18,13.60
2013,05,24,10,19,13.60
2013,05,24,10,20,13.60
2013,05,24,10,21,13.70
2013,05,24,10,22,13.70
2013,05,24,10,23,13.70
2013,05,24,10,24,13.60
2013,05,24,10,25,13.50
2013,05,24,10,26,13.40
2013,05,24,10,27,13.30
2013,05,24,10,28,13.20
2013,05,24,10,29,13.20
2013,05,24,10,30,13.20
2013,05,24,10,31,13.10
2013,05,24,10,32,13.00
2013,05,24,10,33,12.90
2013,05,24,10,34,12.90
2013,05,24,10,35,13.00
2013,05,24,10,36,13.00
2013,05,24,10,37,13.10
2013,05,24,10,38,13.20
2013,05,24,10,39,13.20
2013,05,24,10,40,13.20
2013,05,24,10,41,13.20
2013,05,24,10,42,13.30
2013,05,24,10,43,13.40
2013,05,24,10,44,13.40
2013,05,24,10,45,13.50
2013,05,24,10,46,13.50
2013,05,24,10,47,13.60
2013,05,24,10,48,13.60
2013,05,24,10,49,13.60
2013,05,24,10,50,13.60
2013,05,24,10,51,13.70
2013,05,24,10,52,13.70
2013,05,24,10,53,13.70
2013,05,24,10,54,13.70
2013,05,24,10,55,13.60
2013,05,24,10,56,13.70
2013,05,24,10,57,13.70
2013,05,24,10,58,13.80
2013,05,24,10,59,13.80
2013,05,24,11,00,13.90
2013,05,24,11,01,13.90
2013,05,24,11,02,13.90
2013,05,24,11,03,14.00
2013,05,24,11,04,14.10
2013,05,24,11,05,14.10
2013,05,24,11,06,14.10
2013,05,24,11,07,14.10
2013,05,24,11,08,14.20
2013,05,24,11,09,14.30
2013,05,24,11,10,14.30
2013,05,24,11,11,14.30
2013,05,24,11,12,14.30
2013,05,24,11,13,14.30
2013,05,24,11,14,14.40
2013,05,24,11,15,14.40
2013,05,24,11,16,14.50
2013,05,24,11,17,14.60
2013,05,24,11,18,14.70
2013,05,24,11,19,14.70
2013,05,24,11,20,14.70
2013,05,24,11,21,14.60
2013,05,24,11,22,14.60
2013,05,24,11,23,14.50
2013,05,24,11,24,14.40
2013,05,24,11,25,14.30
2013,05,24,11,26,14.30
2013,05,24,11,27,14.40
2013,05,24,11,28,14.40
2013,05,24,11,29,14.40
2013,05,24,11,30,14.50
2013,05,24,11,31,14.50
2013,05,24,11,32,14.40
2013,05,24,11,33,14.30
2013,05,24,11,34,14.30
2013,05,24,11,35,14.30
2013,05,24,11,36,14.20
2013,05,24,11,37,14.30
2013,05,24,11,38,14.30
2013,05,24,11,39,14.40
2013,05,24,11,40,14.50
2013,05,24,11,41,14.50
2013,05,24,11,42,14.50
2013,05,24,11,43,14.60
2013,05,24,11,44,14.70
2013,05,24,11,45,14.80
2013,05,24,11,46,14.80
2013,05,24,11,47,14.80
2013,05,24,11,48,14.70
2013,05,24,11,49,14.70
2013,05,24,11,50,14.70
2013,05,24,11,51,14.70
2013,05,24,11,52,14.60
2013,05,24,11,53,14.50
2013,05,24,11,54,14.40
2013,05,24,11,55,14.30
2013,05,24,11,56,14.30
2013,05,24,11,57,14.20
2013,05,24,11,58,14.30
2013,05,24,11,59,14.30
2013,05,24,12,00,14.40
2013,05,24,12,01,14.50
2013,05,24,12,02,14.70
2013,05,24,12,03,14.80
2013,05,24,12,04,15.00
2013,05,24,12,05,15.00
2013,05,24,12,06,15.00
2013,05,24,12,07,15.00
2013,05,24,12,08,15.00
2013,05,24,12,09,15.00
2013,05,24,12,10,15.00
2013,05,24,12,11,14.90
2013,05,24,12,12,14.90
2013,05,24,12,13,14.90
2013,05,24,12,14,14.90
2013,05,24,12,15,14.90
2013,05,24,12,16,14.90
2013,05,24,12,17,14.80
2013,05,24,12,18,14.90
2013,05,24,12,19,15.00
2013,05,24,12,20,15.00
2013,05,24,12,21,15.00
2013,05,24,12,22,15.00
2013,05,24,12,23,15.00
2013,05,24,12,24,15.00
2013,05,24,12,25,15.00
2013,05,24,12,26,15.00
2013,05,24,12,27,15.00
2013,05,24,12,28,15.00
2013,05,24,12,29,15.00
2013,05,24,12,30,15.00
2013,05,24,12,31,15.00
2013,05,24,12,32,15.00
2013,05,24,12,33,15.00
2013,05,24,12,34,15.00
2013,05,24,12,35,15.00
2013,05,24,12,36,14.90
2013,05,24,12,37,14.90
2013,05,24,12,38,14.90
2013,05,24,12,39,15.00
2013,05,24,12,40,15.00
2013,05,24,12,41,14.80
2013,05,24,12,42,14.80
2013,05,24,12,43,14.80
2013,05,24,12,44,14.90
2013,05,24,12,45,15.00
2013,05,24,12,46,15.00
2013,05,24,12,47,15.00
2013,05,24,12,48,15.00
2013,05,24,12,49,14.90
2013,05,24,12,50,14.80
2013,05,24,12,51,14.80
2013,05,24,12,52,14.80
2013,05,24,12,53,14.90
2013,05,24,12,54,15.00
2013,05,24,12,55,15.00
2013,05,24,12,56,15.00
2013,05,24,12,57,14.90
2013,05,24,12,58,14.90
2013,05,24,12,59,14.90
2013,05,24,13,00,15.00
2013,05,24,13,01,15.00
2013,05,24,13,02,15.00
2013,05,24,13,03,15.00
2013,05,24,13,04,15.00
2013,05,24,13,05,15.00
2013,05,24,13,06,15.00
2013,05,24,13,07,15.00
2013,05,24,13,08,15.00
2013,05,24,13,09,15.00
2013,05,24,13,10,15.00
2013,05,24,13,11,15.00
2013,05,24,13,12,15.00
2013,05,24,13,13,15.00
2013,05,24,13,14,15.00
2013,05,24,13,15,15.00
2013,05,24,13,16,15.00
2013,05,24,13,17,15.00
2013,05,24,13,18,15.00
2013,05,24,13,19,15.10
2013,05,24,13,20,15.20
2013,05,24,13,21,15.30
2013,05,24,13,22,15.30
2013,05,24,13,23,15.20
2013,05,24,13,24,15.10
2013,05,24,13,25,15.00
2013,05,24,13,26,15.00
2013,05,24,13,27,15.00
2013,05,24,13,28,15.00
2013,05,24,13,29,15.00
2013,05,24,13,30,15.00
2013,05,24,13,31,15.10
2013,05,24,13,32,15.20
2013,05,24,13,33,15.20
2013,05,24,13,34,15.20
2013,05,24,13,35,15.20
2013,05,24,13,36,15.10
2013,05,24,13,37,15.00
2013,05,24,13,38,15.00
2013,05,24,13,39,15.00
2013,05,24,13,40,15.00
2013,05,24,13,41,14.90
2013,05,24,13,42,14.80
2013,05,24,13,43,14.70
2013,05,24,13,44,14.50
2013,05,24,13,45,14.50
2013,05,24,13,46,14.40
2013,05,24,13,47,14.50
2013,05,24,13,48,14.60
2013,05,24,13,49,14.70
2013,05,24,13,50,14.70
2013,05,24,13,51,14.70
2013,05,24,13,52,14.70
2013,05,24,13,53,14.70
2013,05,24,13,54,14.80
2013,05,24,13,55,14.90
2013,05,24,13,56,15.00
2013,05,24,13,57,15.00
2013,05,24,13,58,15.00
2013,05,24,13,59,15.00
2013,05,24,14,00,15.00
2013,05,24,14,01,15.00
2013,05,24,14,02,15.00
2013,05,24,14,03,15.00
2013,05,24,14,04,15.00
2013,05,24,14,05,15.00
2013,05,24,14,06,15.00
2013,05,24,14,07,15.00
2013,05,24,14,08,15.00
2013,05,24,14,09,15.00
2013,05,24,14,10,15.00
2013,05,24,14,11,15.00
2013,05,24,14,12,15.00
2013,05,24,14,13,15.00
2013,05,24,14,14,15.00
2013,05,24,14,15,15.00
2013,05,24,14,16,15.00
2013,05,24,14,17,15.00
2013,05,24,14,18,15.00
2013,05,24,14,19,15.00
2013,05,24,14,20,15.00
2013,05,24,14,21,15.00
2013,05,24,14,22,15.00
2013,05,24,14,23,15.00
2013,05,24,14,24,15.00
2013,05,24,14,25,15.00
2013,05,24,14,26,15.00
2013,05,24,14,27,15.00
2013,05,24,14,28,15.00
2013,05,24,14,29,15.00
2013,05,24,14,30,15.00
2013,05,24,14,31,15.00
2013,05,24,14,32,15.00
2013,05,24,14,33,15.00
2013,05,24,14,34,15.00
2013,05,24,14,35,15.00
2013,05,24,14,36,15.00
2013,05,24,14,37,15.00
2013,05,24,14,38,15.00
2013,05,24,14,39,15.00
2013,05,24,14,40,15.00
2013,05,24,14,41,15.00
2013,05,24,14,42,14.90
2013,05,24,14,43,15.00
2013,05,24,14,44,15.00
2013,05,24,14,45,15.00
2013,05,24,14,46,15.00
2013,05,24,14,47,15.10
2013,05,24,14,48,15.20
2013,05,24,14,49,15.20
2013,05,24,14,50,15.10
2013,05,24,14,51,15.00
2013,05,24,14,52,15.00
2013,05,24,14,53,15.00
2013,05,24,14,54,15.10
2013,05,24,14,55,15.00
2013,05,24,14,56,15.00
2013,05,24,14,57,15.00
2013,05,24,14,58,15.00
2013,05,24,14,59,15.00
2013,05,24,15,00,14.90
2013,05,24,15,01,14.80
2013,05,24,15,02,14.80
2013,05,24,15,03,14.90
2013,05,24,15,04,15.00
2013,05,24,15,05,15.00
2013,05,24,15,06,15.00
2013,05,24,15,07,14.90
2013,05,24,15,08,14.90
2013,05,24,15,09,15.00
2013,05,24,15,10,15.00
2013,05,24,15,11,15.00
2013,05,24,15,12,15.00
2013,05,24,15,13,15.00
2013,05,24,15,14,15.00
2013,05,24,15,15,15.00
2013,05,24,15,16,15.00
2013,05,24,15,17,15.00
2013,05,24,15,18,15.00
2013,05,24,15,19,15.00
2013,05,24,15,20,15.00
2013,05,24,15,21,15.00
2013,05,24,15,22,15.00
2013,05,24,15,23,15.00
2013,05,24,15,24,15.00
2013,05,24,15,25,15.00
2013,05,24,15,26,15.00
2013,05,24,15,27,15.10
2013,05,24,15,28,15.20
2013,05,24,15,29,15.30
2013,05,24,15,30,15.40
2013,05,24,15,31,15.50
2013,05,24,15,32,15.50
2013,05,24,15,33,15.50
2013,05,24,15,34,15.40
2013,05,24,15,35,15.30
2013,05,24,15,36,15.30
2013,05,24,15,37,15.20
2013,05,24,15,38,15.20
2013,05,24,15,39,15.20
2013,05,24,15,40,15.20
2013,05,24,15,41,15.10
2013,05,24,15,42,15.10
2013,05,24,15,43,15.20
2013,05,24,15,44,15.10
2013,05,24,15,45,15.10
2013,05,24,15,46,15.10
2013,05,24,15,47,15.10
2013,05,24,15,48,15.20
2013,05,24,15,49,15.20
2013,05,24,15,50,15.30
2013,05,24,15,51,15.30
2013,05,24,15,52,15.30
2013,05,24,15,53,15.40
2013,05,24,15,54,15.40
2013,05,24,15,55,15.30
2013,05,24,15,56,15.30
2013,05,24,15,57,15.20
2013,05,24,15,58,15.30
2013,05,24,15,59,15.20
2013,05,24,16,00,15.20
2013,05,24,16,01,15.20
2013,05,24,16,02,15.20
2013,05,24,16,03,15.20
2013,05,24,16,04,15.20
2013,05,24,16,05,15.20
2013,05,24,16,06,15.10
2013,05,24,16,07,15.10
2013,05,24,16,08,15.00
2013,05,24,16,09,15.00
2013,05,24,16,10,15.00
2013,05,24,16,11,14.90
2013,05,24,16,12,14.80
2013,05,24,16,13,14.70
2013,05,24,16,14,14.70
2013,05,24,16,15,14.70
2013,05,24,16,16,14.70
2013,05,24,16,17,14.70
2013,05,24,16,18,14.80
2013,05,24,16,19,14.70
2013,05,24,16,20,14.70
2013,05,24,16,21,14.70
2013,05,24,16,22,14.60
2013,05,24,16,23,14.60
2013,05,24,16,24,14.60
2013,05,24,16,25,14.50
2013,05,24,16,26,14.40
2013,05,24,16,27,14.30
2013,05,24,16,28,14.20
2013,05,24,16,29,14.10
2013,05,24,16,30,14.00
2013,05,24,16,31,14.00
2013,05,24,16,32,14.00
2013,05,24,16,33,14.00
2013,05,24,16,34,14.10
2013,05,24,16,35,14.20
2013,05,24,16,36,14.20
2013,05,24,16,37,14.30
2013,05,24,16,38,14.40
2013,05,24,16,39,14.50
2013,05,24,16,40,14.60
2013,05,24,16,41,14.60
2013,05,24,16,42,14.60
2013,05,24,16,43,14.60
2013,05,24,16,44,14.70
2013,05,24,16,45,14.70
2013,05,24,16,46,14.60
2013,05,24,16,47,14.50
2013,05,24,16,48,14.40
2013,05,24,16,49,14.40
2013,05,24,16,50,14.40
2013,05,24,16,51,14.40
2013,05,24,16,52,14.40
2013,05,24,16,53,14.50
2013,05,24,16,54,14.60
2013,05,24,16,55,14.70
2013,05,24,16,56,14.80
2013,05,24,16,57,14.90
2013,05,24,16,58,14.90
2013,05,24,16,59,14.80
2013,05,24,17,00,14.80
2013,05,24,17,01,14.70
2013,05,24,17,02,14.70
2013,05,24,17,03,14.70
2013,05,24,17,04,14.60
2013,05,24,17,05,14.60
2013,05,24,17,06,14.50
2013,05,24,17,07,14.40
2013,05,24,17,08,14.30
2013,05,24,17,09,14.20
2013,05,24,17,10,14.20
2013,05,24,17,11,14.10
2013,05,24,17,12,14.10
2013,05,24,17,13,14.10
2013,05,24,17,14,14.00
2013,05,24,17,15,13.90
2013,05,24,17,16,13.80
2013,05,24,17,17,13.80
2013,05,24,17,18,13.70
2013,05,24,17,19,13.60
2013,05,24,17,20,13.50
2013,05,24,17,21,13.40
2013,05,24,17,22,13.30
2013,05,24,17,23,13.20
2013,05,24,17,24,13.10
2013,05,24,17,25,13.10
2013,05,24,17,26,13.10
2013,05,24,17,27,13.00
2013,05,24,17,28,13.00
2013,05,24,17,29,13.00
2013,05,24,17,30,13.00
2013,05,24,17,31,13.00
2013,05,24,17,32,13.00
2013,05,24,17,33,13.10
2013,05,24,17,34,13.10
2013,05,24,17,35,13.10
2013,05,24,17,36,13.10
2013,05,24,17,37,13.20
2013,05,24,17,38,13.20